Погода в Бикине

Погода в Бикине : погода сейчас, прогноз погоды и архив. Всё, что Вы хотите узнать о погоде в Бикине!

Хотите узнать прогноз погоды в Бикине? Тогда Вам сюда: Погода в Бикине

Поиск расширенной информации на нашем сайте:

Другие новости

Новости СМИ2

Главная страница сайта

Новости сайта

03.07.2017

Напоминаем, что на нашем специализированном сайте Метеоцентр.Азия вы можете получить высокодетализированные автоматические прогнозы погоды по пунктам России, СНГ и мира в авиационном формате (включающие направление и скорость ветра, видимость, явления погоды, количество и форму облачности, нижнюю и верхнюю границу облачности).


Погода в Бикине - сегодня

Время (UTC), дата Ветер
(°,м/с) 
Видим.   Явления Облачность Т
(°С)
Тd
(°С)
f(%) Тe
(°С)
Pmin
(гПа)
dP
(гПа)
Po
(мм)
O2
(г/м3)
Тmin Tmax R s Состояние
почвы
18 20.02.18 110 (В) 20000 м    ясно 
-24.7 -28.1 73 -25  1018.6  0.2  757  337           
00 21.02.18 тихо ()   10 км    ясно 
-21.5 -27.7 57 -22  1019.5  0.4  758  333           
03 21.02.18 230 (ЮЗ) 20000 м    3/0 верхняя 
[Ci fib]
-11.2 -23 37 -13  1018.2  -0.9  757  320           
06 21.02.18 150 (ЮВ) 20000 м    3/0 верхняя 
[Ci fib]
-8.8 -21.5 35 -10  1016.1  -2  755  316           
12 21.02.18 090 (В) 20000 м    10/0 верхняя 
[Ci sp]
-15.2 -22.3 55 -15  1017.4  0.5  756  324           
15 21.02.18 100 (В) 20000 м    10/0 средняя 
[Ac und]
-14 -22 51 -14  1016.2  -1.2  755  322           
18 21.02.18 120 (ЮВ) 20000 м    10/0 средняя, верхняя 
[Ac trans|Ci sp]
-13 -21.8 48 -15  1015.1  -1.2  755  321           
00 22.02.18 120 (ЮВ) 20000 м    3/0 верхняя 
[Ci sp]
-12.3 -17.9 63 -14  1015.6  0.9  755  320           
03 22.02.18 140 (ЮВ) 20000 м    10/0 верхняя 
[Ci fib]
-7.6 -15.6 53 -9  1014.5  -1  754  314           
06 22.02.18 140 (ЮВ) 20000 м    10/0 верхняя 
[Sc|Ci fib]
-5.9 -16.1 44 -7  1013.4  -1  754  312           
09 22.02.18 120 (ЮВ) 10 км    ясно 
-7.7 -12.2 70 -7  1014.5  1.1  754  314    -5.8       
12 22.02.18 290 (З) 10 км  в посл. час снег  10/0 верхняя 
[Sc|Ci fib]
-10.7 -14.7 72 -11  1016.1  1.5  755  318           
15 22.02.18 090 (В) 10 км    9/9 600 м 
[Sc]
-15 -16.6 88 -15  1017.1  0.8  756  324           
18 22.02.18 тихо ()   20000 м    4/0 верхняя 
[Ci fib]
-19.1 -21 85 -19  1017.8  0.5  756  329           
21 22.02.18 тихо ()   10 км  слаб. снег  10/0 средняя 
[Ac und]
-20.3 -22.6 82 -20  1018.5  0.5  757  331  -21.9    0.0  31  равномерный
сухой снег
100% 
00 23.02.18 280 (З) 1000 м  ливневой снег  10/10 600 м кучево-дожд. 
[Cb calv]
-16.3 -18.9 80 -16  1020.2  1.8  758  326           
03 23.02.18 310 (СЗ) 20000 м  {ливн. осадки}  5/3 600 м кучево-дожд., верхняя 
[Cb calv|Ci sp]
-8.9 -15 61 -11  1019.8  0.1  758  317           
06 23.02.18 340 (С) 20000 м  {ливн. осадки}  3/0 верхняя 
[Ci fib]
-9.1 -16.9 53 -13  1020.5  0.7  759  318           
09 23.02.18 350 (С) 20000 м    ясно 
-12.6 -18.1 63 -16  1022.7  2.1  760  323    -8.5  0.4     
12 23.02.18 тихо ()   20000 м    ясно 
-17.8 -20.7 78 -18  1025.1  2.1  762  330           
15 23.02.18 тихо ()   4000 м  дымка  ясно 
-23 -25.6 79 -23  1026.1  0.8  763  337           
18 23.02.18 тихо ()   4000 м  дымка  ясно 
-24.6 -27.3 78 -25  1026.9  0.8  763  340           
00 24.02.18 тихо ()   10 км    ясно 
-20.7 -23.7 77 -21  1028.6  0.9  764  335  -27.8         
03 24.02.18 240 (ЮЗ) 20000 м    3/3 600 м 
[Sc]
-11.4 -22.8 38 -13  1028.5  0.2  765  323           
06 24.02.18 330 (СЗ) 20000 м    1/1 600 м 
[Sc]
-11.2 -24.6 32 -14  1028.2  -0.3  764  323           
Время (UTC), дата Ветер
(°,м/с) 
Видим.   Явления Облачность Т
(°С)
Тd
(°С)
f(%) Тe
(°С)
Pmin
(гПа)
dP
(гПа)
Po
(мм)
O2
(г/м3)
Тmin Tmax R s Состояние
почвы

Для получения пояснительной информации подведите курсор к названию столбца.

ПОГОДА в Бикине - архив

Всё, что Вы хотите узнать о погоде в Бикине - удобно и подробно!

Выберите нужную дату (начиная с 1 января 2015* года) и нажмите кнопку "Найти".
Будут отображены архивные сводки погоды по пункту Бикин, начиная с указанной даты.


Отображать данные в формате CSV (для использования в таблицах Excel)


Внимание! Наш архив погоды предназначен исключительно для личного некоммерческого использования в познавательных целях. Если Вам необходимы официальные справки о состоянии погоды (для производственных, юридических, коммерческих и т.п. целей), обращайтесь в органы Росгидромета.

*Примечание: данная дата относится к архиву по метеостанциям СССР (Россия, СНГ, Балтия).
Архив по метеостанциям Зарубежной Европы и Азии (кроме Китая) хранится 10 дней, по другим регионам земного шара (Китай, Африка, Америка, Австралия, Океания) - 1 день.

Бикин - район местоположения метеостанции


Название, широта, долгота, высота метеостанции:
Бикин 46.8°ш. 134.3°д. 68 м над ур. моря [Российская Федерация]

Дополнительная информация

В oтличие oт бoльшинства пoгoдных сайтoв мы публикуем пoдрoбную метеoинфoрмацию в детальнoм прoфессиoнальнoм фoрмате.

Характеристики температуры и влажнoсти вoздуха измеряются на высoте 2 м в тени вдали oт зданий и деревьев.
Скoрoсть ветра измеряется на высoте 10 м (на урoвне рoста челoвека скoрoсть ветра ниже в 1.5-2 раза). Если метеoстанция нахoдится в гoрoде или в лесу, тo скoрoсть ветра занижена на 2-4 м/с пo сравнению с oткрытым местoм. Скoрoсть ветра над акватoриями крупных рек и oзёр, а также на вершинах хoлмoв на 2-5 м/с выше, чем в oбычных услoвиях.
Атмoсфернoе давление в разных тoчках местнoсти мoжет значительнo oтличаться oт давления на метеoстанции, в зависимoсти oт услoвий рельефа (при пoдъёме на 10 м давление пoнижается примернo на 1 мм рт.ст.).